Flag for Germany Weather past 2 weeks in Sindelfingen, Baden-Württemberg, Germany

Now
48 °F

Partly cloudy.


Feels Like: 43 °F
Forecast: 43 / 48 °F
Wind: 12 mph from Southwest

Location: Stuttgart-Echterdingen

Current Time: Mar 29, 2015 at 5:39:50 AM

Latest Report: Mar 29, 2015 at 4:50 AM


Visibility: N/A

Pressure: 29.92 "Hg

Humidity: 87%

Dew point: 45 °F

Location of SindelfingenLocation

Historic Weather in Sindelfingen — Graph

°F

Sindelfingen temperature yesterday

Maximum temperature yesterday: 55 °F (at 2:20 PM)
Minimum temperature yesterday: 34 °F (at 1:20 AM)
Average temperature yesterday: 45 °F

Past Weeks' High & Low Weather Summary

 TemperatureHumidityPressure
High66 °F (Mar 17, 2:50 PM)100% (Mar 15, 5:50 AM)30.36 "Hg (Mar 15, 5:50 AM)
Low28 °F (Mar 14, 3:20 AM)29% (Mar 16, 3:20 PM)29.56 "Hg (Mar 25, 1:50 PM)
Average45 °F69%30.04 "Hg
* Reported Mar 14 3:20 AM — Mar 29 4:20 AM, Sindelfingen, Weather by CustomWeather, © 2015

Note: Actual official high and low records may vary slightly from our data, if they occured in-between our weather recording intervals... More about our weather records

Advertising

Sindelfingen weather history for previous 24 hours

 ConditionsComfort  
Time TempWeatherWind HumidityBarometerVisibility
4:20 AM
Sun, Mar 29
50 °FLight rain. Partly cloudy.7 mph82%29.92 "HgN/A
3:50 AM48 °FPassing clouds.8 mph87%29.95 "HgN/A
3:20 AM48 °FPassing clouds.6 mph87%29.98 "HgN/A
1:50 AM48 °FPartly cloudy.8 mph82%29.98 "HgN/A
1:20 AM48 °FPassing clouds.7 mph82%29.98 "HgN/A
12:50 AM48 °FPassing clouds.7 mph82%29.98 "HgN/A
12:20 AM48 °FOvercast.8 mph82%30.01 "HgN/A
11:50 PM
Sat, Mar 28
48 °FPassing clouds.8 mph82%30.01 "HgN/A
11:20 PM46 °FPassing clouds.8 mph87%30.01 "HgN/A
10:50 PM46 °FPassing clouds.9 mph82%30.01 "HgN/A
10:20 PM46 °FPassing clouds.8 mph82%30.01 "HgN/A
9:50 PM46 °FLight rain. Passing clouds.7 mph82%30.04 "HgN/A
9:20 PM46 °FLight rain. Passing clouds.7 mph82%30.04 "HgN/A
8:50 PM46 °FLight rain. Passing clouds.7 mph82%30.04 "HgN/A
8:20 PM46 °FPassing clouds.8 mph82%30.04 "HgN/A
7:50 PM46 °FPassing clouds.8 mph82%30.04 "HgN/A
7:20 PM46 °FLight rain. Passing clouds.8 mph82%30.04 "HgN/A
6:50 PM48 °FLight rain. Passing clouds.7 mph76%30.04 "HgN/A
6:20 PM48 °FLight rain. Partly sunny.8 mph71%30.07 "HgN/A
5:50 PM50 °FLight rain. Partly sunny.14 mph62%30.04 "HgN/A
5:20 PM54 °FSunny.12 mph44%30.04 "Hg10 mi
4:50 PM55 °FSunny.10 mph41%30.04 "Hg10 mi
4:20 PM55 °FPassing clouds.8 mph36%30.04 "HgN/A
3:50 PM55 °FSunny.9 mph36%30.04 "Hg10 mi
3:20 PM55 °FPassing clouds.8 mph38%30.04 "HgN/A
2:50 PM55 °FPassing clouds.8 mph36%30.07 "HgN/A
2:20 PM55 °FPassing clouds.9 mph36%30.07 "HgN/A
1:50 PM54 °FPassing clouds.8 mph38%30.09 "HgN/A
1:20 PM54 °FPassing clouds.8 mph41%30.09 "HgN/A
12:50 PM52 °FPassing clouds.8 mph44%30.12 "HgN/A
12:20 PM50 °FPassing clouds.6 mph43%30.12 "HgN/A
11:50 AM50 °FPassing clouds.8 mph47%30.15 "HgN/A
11:20 AM48 °FPassing clouds.6 mph46%30.18 "HgN/A
10:50 AM48 °FPassing clouds.6 mph46%30.18 "HgN/A
10:20 AM48 °FScattered clouds.6 mph46%30.18 "HgN/A
9:50 AM46 °FPartly sunny.7 mph50%30.21 "HgN/A
9:20 AM45 °FPartly sunny.7 mph57%30.21 "HgN/A
8:50 AM45 °FScattered clouds.6 mph61%30.21 "HgN/A
8:20 AM43 °FPartly sunny.6 mph66%30.21 "HgN/A
7:50 AM37 °FPartly sunny.6 mph81%30.21 "HgN/A
7:20 AM37 °FPartly sunny.7 mph75%30.21 "HgN/A
6:50 AM34 °FPartly sunny.7 mph87%30.24 "HgN/A
6:20 AM34 °FPartly sunny.6 mph81%30.24 "HgN/A
5:50 AM34 °FPassing clouds.7 mph75%30.21 "HgN/A
5:20 AM37 °FPassing clouds.6 mph75%30.21 "HgN/A
Weather by CustomWeather, © 2015

See weather overviewHow to use our weather pages